Location: Boiro
(42.6475°N, 8.8834°W)
Time: 19:16:00
(UTC+01:00)

Altair - Pass Details

Date: 09 December 2021
Orbit: 1501 x 1683 km, 47.2° (Epoch: 25 January)

Event Time Altitude Azimuth Distance (km) Brightness Sun altitude
Rises 18:17:32 0° 272° (W) 4,773 11.3 -3.3°
Reaches altitude 10° 18:20:43 10° 276° (W) 3,764 10.6 -3.8°
Maximum altitude 18:30:10 67° 358° (N) 1,641 7.6 -5.4°
Drops below altitude 10° 18:39:20 10° 81° (E) 3,660 8.9 -6.9°
Enters shadow 18:40:27 - 82° (E) 4,015 9.1 -7.1°
Sets 18:42:23 0° 84° (E) 4,635 - -7.4°
